Retour au catalogue

BREEZE-M R/B

ActifHEO
NORAD 50003·ROCKET BODY·🇷🇺 Russia

Lancé Dec 13, 2021 depuis Baikonur Cosmodrome

Loading…

Prochains Passages (prochaines 24 heures)

TLE

FraisSource: Space-Track

Époque: Sep 13, 2026, 18:52 UTC

1 50003U 21123C   26256.78643094 -.00000203  00000-0  00000-0 0  9995
2 50003   6.0463  84.3392 4396318  59.6048 337.0631  1.07952816 18803

Suivez BREEZE-M R/B en temps réel avec AllMySat

Download on the App Store